Year,Month,Day,Hour,Minute,Value (Times are PST for temperature in C)
2014,08,10,00,00,18.30
2014,08,10,00,01,18.30
2014,08,10,00,02,18.30
2014,08,10,00,03,18.30
2014,08,10,00,04,18.20
2014,08,10,00,05,18.20
2014,08,10,00,06,18.20
2014,08,10,00,07,18.20
2014,08,10,00,08,18.20
2014,08,10,00,09,18.20
2014,08,10,00,10,18.20
2014,08,10,00,11,18.10
2014,08,10,00,12,18.10
2014,08,10,00,13,18.10
2014,08,10,00,14,18.00
2014,08,10,00,15,18.00
2014,08,10,00,16,17.90
2014,08,10,00,17,17.90
2014,08,10,00,18,17.90
2014,08,10,00,19,17.90
2014,08,10,00,20,17.80
2014,08,10,00,21,17.80
2014,08,10,00,22,17.80
2014,08,10,00,23,17.80
2014,08,10,00,24,17.80
2014,08,10,00,25,17.80
2014,08,10,00,26,17.80
2014,08,10,00,27,17.80
2014,08,10,00,28,17.80
2014,08,10,00,29,17.70
2014,08,10,00,30,17.70
2014,08,10,00,31,17.70
2014,08,10,00,32,17.70
2014,08,10,00,33,17.70
2014,08,10,00,34,17.70
2014,08,10,00,35,17.60
2014,08,10,00,36,17.50
2014,08,10,00,37,17.40
2014,08,10,00,38,17.30
2014,08,10,00,39,17.30
2014,08,10,00,40,17.20
2014,08,10,00,41,17.10
2014,08,10,00,42,17.10
2014,08,10,00,43,17.00
2014,08,10,00,44,17.00
2014,08,10,00,45,16.90
2014,08,10,00,46,16.90
2014,08,10,00,47,16.90
2014,08,10,00,48,16.90
2014,08,10,00,49,16.90
2014,08,10,00,50,16.90
2014,08,10,00,51,16.80
2014,08,10,00,52,16.80
2014,08,10,00,53,16.80
2014,08,10,00,54,16.80
2014,08,10,00,55,16.80
2014,08,10,00,56,16.80
2014,08,10,00,57,16.80
2014,08,10,00,58,16.70
2014,08,10,00,59,16.70
2014,08,10,01,00,16.70
2014,08,10,01,01,16.80
2014,08,10,01,02,16.80
2014,08,10,01,03,16.80
2014,08,10,01,04,16.90
2014,08,10,01,05,16.90
2014,08,10,01,06,16.90
2014,08,10,01,07,17.00
2014,08,10,01,08,17.10
2014,08,10,01,09,17.10
2014,08,10,01,10,17.20
2014,08,10,01,11,17.20
2014,08,10,01,12,17.20
2014,08,10,01,13,17.20
2014,08,10,01,14,17.20
2014,08,10,01,15,17.20
2014,08,10,01,16,17.20
2014,08,10,01,17,17.20
2014,08,10,01,18,17.20
2014,08,10,01,19,17.20
2014,08,10,01,20,17.20
2014,08,10,01,21,17.20
2014,08,10,01,22,17.10
2014,08,10,01,23,17.10
2014,08,10,01,24,17.10
2014,08,10,01,25,17.00
2014,08,10,01,26,17.00
2014,08,10,01,27,16.90
2014,08,10,01,28,16.90
2014,08,10,01,29,16.90
2014,08,10,01,30,16.90
2014,08,10,01,31,16.90
2014,08,10,01,32,17.00
2014,08,10,01,33,16.90
2014,08,10,01,34,16.90
2014,08,10,01,35,16.90
2014,08,10,01,36,16.90
2014,08,10,01,37,17.00
2014,08,10,01,38,17.00
2014,08,10,01,39,17.10
2014,08,10,01,40,17.20
2014,08,10,01,41,17.30
2014,08,10,01,42,17.40
2014,08,10,01,43,17.40
2014,08,10,01,44,17.50
2014,08,10,01,45,17.60
2014,08,10,01,46,17.60
2014,08,10,01,47,17.60
2014,08,10,01,48,17.70
2014,08,10,01,49,17.70
2014,08,10,01,50,17.70
2014,08,10,01,51,17.70
2014,08,10,01,52,17.70
2014,08,10,01,53,17.70
2014,08,10,01,54,17.70
2014,08,10,01,55,17.70
2014,08,10,01,56,17.70
2014,08,10,01,57,17.80
2014,08,10,01,58,17.80
2014,08,10,01,59,17.80
2014,08,10,02,00,17.70
2014,08,10,02,01,17.70
2014,08,10,02,02,17.70
2014,08,10,02,03,17.70
2014,08,10,02,04,17.70
2014,08,10,02,05,17.70
2014,08,10,02,06,17.70
2014,08,10,02,07,17.70
2014,08,10,02,08,17.70
2014,08,10,02,09,17.70
2014,08,10,02,10,17.70
2014,08,10,02,11,17.70
2014,08,10,02,12,17.70
2014,08,10,02,13,17.70
2014,08,10,02,14,17.70
2014,08,10,02,15,17.70
2014,08,10,02,16,17.70
2014,08,10,02,17,17.80
2014,08,10,02,18,17.80
2014,08,10,02,19,17.80
2014,08,10,02,20,17.80
2014,08,10,02,21,17.80
2014,08,10,02,22,17.80
2014,08,10,02,23,17.80
2014,08,10,02,24,17.80
2014,08,10,02,25,17.80
2014,08,10,02,26,17.80
2014,08,10,02,27,17.70
2014,08,10,02,28,17.70
2014,08,10,02,29,17.70
2014,08,10,02,30,17.70
2014,08,10,02,31,17.70
2014,08,10,02,32,17.70
2014,08,10,02,33,17.70
2014,08,10,02,34,17.70
2014,08,10,02,35,17.70
2014,08,10,02,36,17.70
2014,08,10,02,37,17.70
2014,08,10,02,38,17.70
2014,08,10,02,39,17.70
2014,08,10,02,40,17.70
2014,08,10,02,41,17.70
2014,08,10,02,42,17.70
2014,08,10,02,43,17.70
2014,08,10,02,44,17.70
2014,08,10,02,45,17.60
2014,08,10,02,46,17.70
2014,08,10,02,47,17.70
2014,08,10,02,48,17.70
2014,08,10,02,49,17.70
2014,08,10,02,50,17.70
2014,08,10,02,51,17.60
2014,08,10,02,52,17.60
2014,08,10,02,53,17.60
2014,08,10,02,54,17.60
2014,08,10,02,55,17.60
2014,08,10,02,56,17.50
2014,08,10,02,57,17.50
2014,08,10,02,58,17.50
2014,08,10,02,59,17.50
2014,08,10,03,00,17.50
2014,08,10,03,01,17.50
2014,08,10,03,02,17.40
2014,08,10,03,03,17.40
2014,08,10,03,04,17.40
2014,08,10,03,05,17.40
2014,08,10,03,06,17.40
2014,08,10,03,07,17.40
2014,08,10,03,08,17.40
2014,08,10,03,09,17.30
2014,08,10,03,10,17.30
2014,08,10,03,11,17.30
2014,08,10,03,12,17.30
2014,08,10,03,13,17.30
2014,08,10,03,14,17.30
2014,08,10,03,15,17.30
2014,08,10,03,16,17.30
2014,08,10,03,17,17.20
2014,08,10,03,18,17.20
2014,08,10,03,19,17.20
2014,08,10,03,20,17.20
2014,08,10,03,21,17.20
2014,08,10,03,22,17.20
2014,08,10,03,23,17.20
2014,08,10,03,24,17.20
2014,08,10,03,25,17.20
2014,08,10,03,26,17.20
2014,08,10,03,27,17.20
2014,08,10,03,28,17.30
2014,08,10,03,29,17.30
2014,08,10,03,30,17.30
2014,08,10,03,31,17.30
2014,08,10,03,32,17.30
2014,08,10,03,33,17.30
2014,08,10,03,34,17.20
2014,08,10,03,35,17.20
2014,08,10,03,36,17.20
2014,08,10,03,37,17.20
2014,08,10,03,38,17.10
2014,08,10,03,39,17.10
2014,08,10,03,40,17.10
2014,08,10,03,41,17.10
2014,08,10,03,42,17.10
2014,08,10,03,43,17.00
2014,08,10,03,44,17.00
2014,08,10,03,45,17.00
2014,08,10,03,46,16.90
2014,08,10,03,47,16.90
2014,08,10,03,48,16.90
2014,08,10,03,49,16.90
2014,08,10,03,50,16.90
2014,08,10,03,51,16.90
2014,08,10,03,52,16.90
2014,08,10,03,53,16.80
2014,08,10,03,54,16.80
2014,08,10,03,55,16.80
2014,08,10,03,56,16.80
2014,08,10,03,57,16.80
2014,08,10,03,58,16.80
2014,08,10,03,59,16.80
2014,08,10,04,00,16.90
2014,08,10,04,01,16.90
2014,08,10,04,02,16.90
2014,08,10,04,03,16.90
2014,08,10,04,04,16.90
2014,08,10,04,05,16.90
2014,08,10,04,06,16.90
2014,08,10,04,07,16.90
2014,08,10,04,08,16.90
2014,08,10,04,09,16.90
2014,08,10,04,10,16.90
2014,08,10,04,11,16.90
2014,08,10,04,12,16.90
2014,08,10,04,13,16.90
2014,08,10,04,14,16.90
2014,08,10,04,15,16.90
2014,08,10,04,16,16.90
2014,08,10,04,17,16.90
2014,08,10,04,18,16.90
2014,08,10,04,19,16.90
2014,08,10,04,20,16.90
2014,08,10,04,21,16.90
2014,08,10,04,22,16.90
2014,08,10,04,23,16.90
2014,08,10,04,24,16.90
2014,08,10,04,25,16.90
2014,08,10,04,26,16.90
2014,08,10,04,27,16.90
2014,08,10,04,28,16.90
2014,08,10,04,29,16.90
2014,08,10,04,30,16.80
2014,08,10,04,31,16.80
2014,08,10,04,32,16.80
2014,08,10,04,33,16.80
2014,08,10,04,34,16.80
2014,08,10,04,35,16.70
2014,08,10,04,36,16.70
2014,08,10,04,37,16.70
2014,08,10,04,38,16.70
2014,08,10,04,39,16.70
2014,08,10,04,40,16.70
2014,08,10,04,41,16.60
2014,08,10,04,42,16.60
2014,08,10,04,43,16.60
2014,08,10,04,44,16.60
2014,08,10,04,45,16.50
2014,08,10,04,46,16.50
2014,08,10,04,47,16.40
2014,08,10,04,48,16.40
2014,08,10,04,49,16.30
2014,08,10,04,50,16.30
2014,08,10,04,51,16.20
2014,08,10,04,52,16.20
2014,08,10,04,53,16.10
2014,08,10,04,54,16.00
2014,08,10,04,55,16.00
2014,08,10,04,56,15.90
2014,08,10,04,57,15.80
2014,08,10,04,58,15.80
2014,08,10,04,59,15.70
2014,08,10,05,00,15.70
2014,08,10,05,01,15.70
2014,08,10,05,02,15.60
2014,08,10,05,03,15.60
2014,08,10,05,04,15.60
2014,08,10,05,05,15.60
2014,08,10,05,06,15.50
2014,08,10,05,07,15.40
2014,08,10,05,08,15.30
2014,08,10,05,09,15.20
2014,08,10,05,10,15.10
2014,08,10,05,11,15.00
2014,08,10,05,12,14.90
2014,08,10,05,13,14.90
2014,08,10,05,14,14.80
2014,08,10,05,15,14.80
2014,08,10,05,16,14.80
2014,08,10,05,17,14.80
2014,08,10,05,18,14.80
2014,08,10,05,19,14.80
2014,08,10,05,20,14.90
2014,08,10,05,21,15.10
2014,08,10,05,22,15.20
2014,08,10,05,23,15.30
2014,08,10,05,24,15.40
2014,08,10,05,25,15.40
2014,08,10,05,26,15.40
2014,08,10,05,27,15.50
2014,08,10,05,28,15.50
2014,08,10,05,29,15.60
2014,08,10,05,30,15.70
2014,08,10,05,31,15.70
2014,08,10,05,32,15.70
2014,08,10,05,33,15.70
2014,08,10,05,34,15.80
2014,08,10,05,35,15.80
2014,08,10,05,36,15.90
2014,08,10,05,37,15.90
2014,08,10,05,38,16.00
2014,08,10,05,39,16.00
2014,08,10,05,40,16.10
2014,08,10,05,41,16.10
2014,08,10,05,42,16.10
2014,08,10,05,43,16.10
2014,08,10,05,44,16.10
2014,08,10,05,45,16.10
2014,08,10,05,46,16.10
2014,08,10,05,47,16.10
2014,08,10,05,48,16.00
2014,08,10,05,49,16.00
2014,08,10,05,50,15.90
2014,08,10,05,51,15.80
2014,08,10,05,52,15.70
2014,08,10,05,53,15.50
2014,08,10,05,54,15.40
2014,08,10,05,55,15.30
2014,08,10,05,56,15.20
2014,08,10,05,57,15.10
2014,08,10,05,58,15.00
2014,08,10,05,59,15.00
2014,08,10,06,00,15.00
2014,08,10,06,01,15.10
2014,08,10,06,02,15.10
2014,08,10,06,03,15.10
2014,08,10,06,04,15.10
2014,08,10,06,05,15.20
2014,08,10,06,06,15.20
2014,08,10,06,07,15.30
2014,08,10,06,08,15.30
2014,08,10,06,09,15.40
2014,08,10,06,10,15.40
2014,08,10,06,11,15.40
2014,08,10,06,12,15.40
2014,08,10,06,13,15.40
2014,08,10,06,14,15.40
2014,08,10,06,15,15.40
2014,08,10,06,16,15.40
2014,08,10,06,17,15.30
2014,08,10,06,18,15.10
2014,08,10,06,19,15.00
2014,08,10,06,20,14.90
2014,08,10,06,21,14.80
2014,08,10,06,22,14.80
2014,08,10,06,23,14.70
2014,08,10,06,24,14.70
2014,08,10,06,25,14.70
2014,08,10,06,26,14.70
2014,08,10,06,27,14.80
2014,08,10,06,28,14.90
2014,08,10,06,29,15.00
2014,08,10,06,30,15.20
2014,08,10,06,31,15.20
2014,08,10,06,32,15.10
2014,08,10,06,33,15.00
2014,08,10,06,34,15.00
2014,08,10,06,35,14.90
2014,08,10,06,36,14.80
2014,08,10,06,37,14.80
2014,08,10,06,38,14.70
2014,08,10,06,39,14.70
2014,08,10,06,40,14.70
2014,08,10,06,41,14.60
2014,08,10,06,42,14.60
2014,08,10,06,43,14.60
2014,08,10,06,44,14.60
2014,08,10,06,45,14.60
2014,08,10,06,46,14.70
2014,08,10,06,47,14.70
2014,08,10,06,48,14.70
2014,08,10,06,49,14.70
2014,08,10,06,50,14.70
2014,08,10,06,51,14.80
2014,08,10,06,52,14.80
2014,08,10,06,53,14.80
2014,08,10,06,54,14.80
2014,08,10,06,55,14.90
2014,08,10,06,56,14.90
2014,08,10,06,57,14.90
2014,08,10,06,58,14.90
2014,08,10,06,59,14.90
2014,08,10,07,00,14.90
2014,08,10,07,01,14.90
2014,08,10,07,02,14.90
2014,08,10,07,03,14.90
2014,08,10,07,04,14.90
2014,08,10,07,05,14.80
2014,08,10,07,06,14.80
2014,08,10,07,07,14.80
2014,08,10,07,08,14.80
2014,08,10,07,09,14.80
2014,08,10,07,10,14.80
2014,08,10,07,11,14.90
2014,08,10,07,12,14.90
2014,08,10,07,13,14.90
2014,08,10,07,14,15.00
2014,08,10,07,15,15.00
2014,08,10,07,16,15.00
2014,08,10,07,17,15.10
2014,08,10,07,18,15.10
2014,08,10,07,19,15.10
2014,08,10,07,20,15.10
2014,08,10,07,21,15.20
2014,08,10,07,22,15.30
2014,08,10,07,23,15.40
2014,08,10,07,24,15.40
2014,08,10,07,25,15.50
2014,08,10,07,26,15.70
2014,08,10,07,27,15.80
2014,08,10,07,28,15.90
2014,08,10,07,29,16.00
2014,08,10,07,30,16.10
2014,08,10,07,31,16.10
2014,08,10,07,32,16.20
2014,08,10,07,33,16.30
2014,08,10,07,34,16.40
2014,08,10,07,35,16.40
2014,08,10,07,36,16.50
2014,08,10,07,37,16.60
2014,08,10,07,38,16.70
2014,08,10,07,39,16.70
2014,08,10,07,40,16.80
2014,08,10,07,41,16.80
2014,08,10,07,42,16.90
2014,08,10,07,43,17.00
2014,08,10,07,44,17.00
2014,08,10,07,45,17.10
2014,08,10,07,46,17.10
2014,08,10,07,47,17.20
2014,08,10,07,48,17.20
2014,08,10,07,49,17.30
2014,08,10,07,50,17.30
2014,08,10,07,51,17.40
2014,08,10,07,52,17.40
2014,08,10,07,53,17.50
2014,08,10,07,54,17.50
2014,08,10,07,55,17.50
2014,08,10,07,56,17.60
2014,08,10,07,57,17.60
2014,08,10,07,58,17.60
2014,08,10,07,59,17.60
2014,08,10,08,00,17.70
2014,08,10,08,01,17.70
2014,08,10,08,02,17.70
2014,08,10,08,03,17.70
2014,08,10,08,04,17.70
2014,08,10,08,05,17.80
2014,08,10,08,06,17.80
2014,08,10,08,07,17.90
2014,08,10,08,08,17.90
2014,08,10,08,09,18.00
2014,08,10,08,10,18.00
2014,08,10,08,11,18.10
2014,08,10,08,12,18.10
2014,08,10,08,13,18.20
2014,08,10,08,14,18.20
2014,08,10,08,15,18.30
2014,08,10,08,16,18.30
2014,08,10,08,17,18.40
2014,08,10,08,18,18.40
2014,08,10,08,19,18.50
2014,08,10,08,20,18.50
2014,08,10,08,21,18.60
2014,08,10,08,22,18.70
2014,08,10,08,23,18.70
2014,08,10,08,24,18.80
2014,08,10,08,25,18.80
2014,08,10,08,26,18.80
2014,08,10,08,27,18.80
2014,08,10,08,28,18.80
2014,08,10,08,29,18.80
2014,08,10,08,30,18.80
2014,08,10,08,31,18.80
2014,08,10,08,32,18.90
2014,08,10,08,33,18.90
2014,08,10,08,34,18.90
2014,08,10,08,35,18.90
2014,08,10,08,36,18.90
2014,08,10,08,37,18.80
2014,08,10,08,38,18.60
2014,08,10,08,39,18.30
2014,08,10,08,40,18.10
2014,08,10,08,41,17.90
2014,08,10,08,42,17.80
2014,08,10,08,43,17.80
2014,08,10,08,44,17.80
2014,08,10,08,45,17.80
2014,08,10,08,46,17.90
2014,08,10,08,47,18.00
2014,08,10,08,48,18.00
2014,08,10,08,49,18.10
2014,08,10,08,50,18.20
2014,08,10,08,51,18.30
2014,08,10,08,52,18.40
2014,08,10,08,53,18.50
2014,08,10,08,54,18.50
2014,08,10,08,55,18.60
2014,08,10,08,56,18.60
2014,08,10,08,57,18.60
2014,08,10,08,58,18.70
2014,08,10,08,59,18.70
2014,08,10,09,00,18.70
2014,08,10,09,01,18.70
2014,08,10,09,02,18.70
2014,08,10,09,03,18.70
2014,08,10,09,04,18.70
2014,08,10,09,05,18.70
2014,08,10,09,06,18.80
2014,08,10,09,07,18.80
2014,08,10,09,08,18.70
2014,08,10,09,09,18.70
2014,08,10,09,10,18.60
2014,08,10,09,11,18.60
2014,08,10,09,12,18.50
2014,08,10,09,13,18.50
2014,08,10,09,14,18.50
2014,08,10,09,15,18.50
2014,08,10,09,16,18.50
2014,08,10,09,17,18.40
2014,08,10,09,18,18.30
2014,08,10,09,19,18.30
2014,08,10,09,20,18.20
2014,08,10,09,21,18.20
2014,08,10,09,22,18.20
2014,08,10,09,23,18.20
2014,08,10,09,24,18.20
2014,08,10,09,25,18.10
2014,08,10,09,26,18.10
2014,08,10,09,27,18.10
2014,08,10,09,28,18.10
2014,08,10,09,29,18.20
2014,08,10,09,30,18.30
2014,08,10,09,31,18.30
2014,08,10,09,32,18.40
2014,08,10,09,33,18.50
2014,08,10,09,34,18.60
2014,08,10,09,35,18.60
2014,08,10,09,36,18.70
2014,08,10,09,37,18.60
2014,08,10,09,38,18.70
2014,08,10,09,39,18.70
2014,08,10,09,40,18.60
2014,08,10,09,41,18.60
2014,08,10,09,42,18.60
2014,08,10,09,43,18.60
2014,08,10,09,44,18.60
2014,08,10,09,45,18.60
2014,08,10,09,46,18.60
2014,08,10,09,47,18.70
2014,08,10,09,48,18.70
2014,08,10,09,49,18.70
2014,08,10,09,50,18.70
2014,08,10,09,51,18.80
2014,08,10,09,52,18.90
2014,08,10,09,53,19.00
2014,08,10,09,54,19.20
2014,08,10,09,55,19.30
2014,08,10,09,56,19.40
2014,08,10,09,57,19.50
2014,08,10,09,58,19.60
2014,08,10,09,59,19.70
2014,08,10,10,00,19.80
2014,08,10,10,01,19.80
2014,08,10,10,02,19.80
2014,08,10,10,03,19.80
2014,08,10,10,04,19.80
2014,08,10,10,05,19.70
2014,08,10,10,06,19.60
2014,08,10,10,07,19.60
2014,08,10,10,08,19.50
2014,08,10,10,09,19.50
2014,08,10,10,10,19.40
2014,08,10,10,11,19.40
2014,08,10,10,12,19.40
2014,08,10,10,13,19.40
2014,08,10,10,14,19.30
2014,08,10,10,15,19.30
2014,08,10,10,16,19.30
2014,08,10,10,17,19.30
2014,08,10,10,18,19.30
2014,08,10,10,19,19.30
2014,08,10,10,20,19.30
2014,08,10,10,21,19.40
2014,08,10,10,22,19.40
2014,08,10,10,23,19.40
2014,08,10,10,24,19.40
2014,08,10,10,25,19.40
2014,08,10,10,26,19.50
2014,08,10,10,27,19.60
2014,08,10,10,28,19.70
2014,08,10,10,29,19.80
2014,08,10,10,30,20.00
2014,08,10,10,31,20.10
2014,08,10,10,32,20.10
2014,08,10,10,33,20.10
2014,08,10,10,34,20.20
2014,08,10,10,35,20.20
2014,08,10,10,36,20.20
2014,08,10,10,37,20.20
2014,08,10,10,38,20.30
2014,08,10,10,39,20.30
2014,08,10,10,40,20.30
2014,08,10,10,41,20.30
2014,08,10,10,42,20.30
2014,08,10,10,43,20.20
2014,08,10,10,44,20.30
2014,08,10,10,45,20.30
2014,08,10,10,46,20.40
2014,08,10,10,47,20.60
2014,08,10,10,48,20.70
2014,08,10,10,49,20.70
2014,08,10,10,50,20.80
2014,08,10,10,51,20.80
2014,08,10,10,52,20.90
2014,08,10,10,53,21.00
2014,08,10,10,54,21.00
2014,08,10,10,55,21.00
2014,08,10,10,56,21.00
2014,08,10,10,57,21.00
2014,08,10,10,58,20.90
2014,08,10,10,59,20.90
2014,08,10,11,00,21.00
2014,08,10,11,01,21.00
2014,08,10,11,02,21.10
2014,08,10,11,03,21.10
2014,08,10,11,04,21.10
2014,08,10,11,05,21.10
2014,08,10,11,06,21.10
2014,08,10,11,07,21.10
2014,08,10,11,08,21.20
2014,08,10,11,09,21.20
2014,08,10,11,10,21.30
2014,08,10,11,11,21.40
2014,08,10,11,12,21.50
2014,08,10,11,13,21.50
2014,08,10,11,14,21.60
2014,08,10,11,15,21.70
2014,08,10,11,16,21.80
2014,08,10,11,17,21.90
2014,08,10,11,18,22.00
2014,08,10,11,19,22.10
2014,08,10,11,20,22.10
2014,08,10,11,21,22.20
2014,08,10,11,22,22.20
2014,08,10,11,23,22.30
2014,08,10,11,24,22.40
2014,08,10,11,25,22.50
2014,08,10,11,26,22.60
2014,08,10,11,27,22.70
2014,08,10,11,28,22.70
2014,08,10,11,29,22.80
2014,08,10,11,30,22.80
2014,08,10,11,31,22.80
2014,08,10,11,32,22.80
2014,08,10,11,33,22.80
2014,08,10,11,34,22.90
2014,08,10,11,35,22.90
2014,08,10,11,36,22.90
2014,08,10,11,37,22.90
2014,08,10,11,38,22.80
2014,08,10,11,39,22.80
2014,08,10,11,40,22.70
2014,08,10,11,41,22.60
2014,08,10,11,42,22.60
2014,08,10,11,43,22.60
2014,08,10,11,44,22.50
2014,08,10,11,45,22.40
2014,08,10,11,46,22.40
2014,08,10,11,47,22.40
2014,08,10,11,48,22.40
2014,08,10,11,49,22.30
2014,08,10,11,50,22.30
2014,08,10,11,51,22.30
2014,08,10,11,52,22.30
2014,08,10,11,53,22.30
2014,08,10,11,54,22.30
2014,08,10,11,55,22.30
2014,08,10,11,56,22.40
2014,08,10,11,57,22.50
2014,08,10,11,58,22.60
2014,08,10,11,59,22.70
2014,08,10,12,00,22.80
2014,08,10,12,01,22.90
2014,08,10,12,02,23.00
2014,08,10,12,03,23.00
2014,08,10,12,04,23.10
2014,08,10,12,05,23.10
2014,08,10,12,06,23.10
2014,08,10,12,07,23.10
2014,08,10,12,08,23.10
2014,08,10,12,09,23.00
2014,08,10,12,10,23.00
2014,08,10,12,11,22.90
2014,08,10,12,12,23.00
2014,08,10,12,13,23.00
2014,08,10,12,14,23.10
2014,08,10,12,15,23.20
2014,08,10,12,16,23.20
2014,08,10,12,17,23.30
2014,08,10,12,18,23.30
2014,08,10,12,19,23.30
2014,08,10,12,20,23.30
2014,08,10,12,21,23.30
2014,08,10,12,22,23.40
2014,08,10,12,23,23.40
2014,08,10,12,24,23.50
2014,08,10,12,25,23.60
2014,08,10,12,26,23.70
2014,08,10,12,27,23.70
2014,08,10,12,28,23.80
2014,08,10,12,29,23.80
2014,08,10,12,30,23.90
2014,08,10,12,31,23.90
2014,08,10,12,32,23.90
2014,08,10,12,33,23.90
2014,08,10,12,34,24.00
2014,08,10,12,35,24.10
2014,08,10,12,36,24.20
2014,08,10,12,37,24.20
2014,08,10,12,38,24.30
2014,08,10,12,39,24.30
2014,08,10,12,40,24.40
2014,08,10,12,41,24.40
2014,08,10,12,42,24.50
2014,08,10,12,43,24.50
2014,08,10,12,44,24.50
2014,08,10,12,45,24.40
2014,08,10,12,46,24.40
2014,08,10,12,47,24.40
2014,08,10,12,48,24.30
2014,08,10,12,49,24.30
2014,08,10,12,50,24.40
2014,08,10,12,51,24.40
2014,08,10,12,52,24.50
2014,08,10,12,53,24.60
2014,08,10,12,54,24.60
2014,08,10,12,55,24.70
2014,08,10,12,56,24.80
2014,08,10,12,57,24.80
2014,08,10,12,58,24.90
2014,08,10,12,59,24.90
2014,08,10,13,00,24.90
2014,08,10,13,01,24.90
2014,08,10,13,02,24.90
2014,08,10,13,03,24.90
2014,08,10,13,04,24.80
2014,08,10,13,05,24.70
2014,08,10,13,06,24.60
2014,08,10,13,07,24.60
2014,08,10,13,08,24.60
2014,08,10,13,09,24.60
2014,08,10,13,10,24.60
2014,08,10,13,11,24.70
2014,08,10,13,12,24.70
2014,08,10,13,13,24.80
2014,08,10,13,14,24.80
2014,08,10,13,15,24.80
2014,08,10,13,16,24.80
2014,08,10,13,17,24.80
2014,08,10,13,18,24.90
2014,08,10,13,19,24.90
2014,08,10,13,20,25.00
2014,08,10,13,21,25.10
2014,08,10,13,22,25.10
2014,08,10,13,23,25.10
2014,08,10,13,24,25.10
2014,08,10,13,25,25.10
2014,08,10,13,26,25.10
2014,08,10,13,27,25.20
2014,08,10,13,28,25.30
2014,08,10,13,29,25.30
2014,08,10,13,30,25.40
2014,08,10,13,31,25.50
2014,08,10,13,32,25.60
2014,08,10,13,33,25.70
2014,08,10,13,34,25.70
2014,08,10,13,35,25.80
2014,08,10,13,36,25.80
2014,08,10,13,37,25.90
2014,08,10,13,38,26.10
2014,08,10,13,39,26.30
2014,08,10,13,40,26.40
2014,08,10,13,41,26.60
2014,08,10,13,42,26.80
2014,08,10,13,43,26.90
2014,08,10,13,44,27.00
2014,08,10,13,45,27.00
2014,08,10,13,46,27.10
2014,08,10,13,47,27.20
2014,08,10,13,48,27.30
2014,08,10,13,49,27.30
2014,08,10,13,50,27.30
2014,08,10,13,51,27.30
2014,08,10,13,52,27.30
2014,08,10,13,53,27.20
2014,08,10,13,54,27.20
2014,08,10,13,55,27.20
2014,08,10,13,56,27.20
2014,08,10,13,57,27.20
2014,08,10,13,58,27.20
2014,08,10,13,59,27.20
2014,08,10,14,00,27.30
2014,08,10,14,01,27.40
2014,08,10,14,02,27.40
2014,08,10,14,03,27.40
2014,08,10,14,04,27.50
2014,08,10,14,05,27.50
2014,08,10,14,06,27.50
2014,08,10,14,07,27.60
2014,08,10,14,08,27.60
2014,08,10,14,09,27.50
2014,08,10,14,10,27.50
2014,08,10,14,11,27.40
2014,08,10,14,12,27.30
2014,08,10,14,13,27.30
2014,08,10,14,14,27.20
2014,08,10,14,15,27.10
2014,08,10,14,16,27.10
2014,08,10,14,17,27.10
2014,08,10,14,18,27.10
2014,08,10,14,19,27.10
2014,08,10,14,20,27.10
2014,08,10,14,21,27.10
2014,08,10,14,22,27.10
2014,08,10,14,23,27.00
2014,08,10,14,24,27.00
2014,08,10,14,25,26.90
2014,08,10,14,26,26.90
2014,08,10,14,27,26.80
2014,08,10,14,28,26.80
2014,08,10,14,29,26.70
2014,08,10,14,30,26.60
2014,08,10,14,31,26.50
2014,08,10,14,32,26.40
2014,08,10,14,33,26.40
2014,08,10,14,34,26.30
2014,08,10,14,35,26.30
2014,08,10,14,36,26.30
2014,08,10,14,37,26.20
2014,08,10,14,38,26.20
2014,08,10,14,39,26.10
2014,08,10,14,40,26.00
2014,08,10,14,41,26.00
2014,08,10,14,42,26.00
2014,08,10,14,43,26.00
2014,08,10,14,44,26.10
2014,08,10,14,45,26.20
2014,08,10,14,46,26.30
2014,08,10,14,47,26.40
2014,08,10,14,48,26.60
2014,08,10,14,49,26.70
2014,08,10,14,50,26.80
2014,08,10,14,51,26.90
2014,08,10,14,52,27.00
2014,08,10,14,53,27.10
2014,08,10,14,54,27.20
2014,08,10,14,55,27.30
2014,08,10,14,56,27.30
2014,08,10,14,57,27.40
2014,08,10,14,58,27.40
2014,08,10,14,59,27.50
2014,08,10,15,00,27.50
2014,08,10,15,01,27.60
2014,08,10,15,02,27.60
2014,08,10,15,03,27.70
2014,08,10,15,04,27.70
2014,08,10,15,05,27.80
2014,08,10,15,06,27.80
2014,08,10,15,07,27.90
2014,08,10,15,08,28.00
2014,08,10,15,09,28.10
2014,08,10,15,10,28.10
2014,08,10,15,11,28.20
2014,08,10,15,12,28.20
2014,08,10,15,13,28.20
2014,08,10,15,14,28.30
2014,08,10,15,15,28.30
2014,08,10,15,16,28.30
2014,08,10,15,17,28.30
2014,08,10,15,18,28.40
2014,08,10,15,19,28.50
2014,08,10,15,20,28.60
2014,08,10,15,21,28.70
2014,08,10,15,22,28.80
2014,08,10,15,23,28.80
2014,08,10,15,24,28.80
2014,08,10,15,25,28.90
2014,08,10,15,26,28.90
2014,08,10,15,27,29.00
2014,08,10,15,28,29.00
2014,08,10,15,29,29.10
2014,08,10,15,30,29.10
2014,08,10,15,31,29.10
2014,08,10,15,32,29.00
2014,08,10,15,33,28.90
2014,08,10,15,34,29.00
2014,08,10,15,35,29.00
2014,08,10,15,36,29.10
2014,08,10,15,37,29.10
2014,08,10,15,38,29.20
2014,08,10,15,39,29.20
2014,08,10,15,40,29.20
2014,08,10,15,41,29.10
2014,08,10,15,42,29.10
2014,08,10,15,43,29.10
2014,08,10,15,44,29.10
2014,08,10,15,45,29.10
2014,08,10,15,46,29.10
2014,08,10,15,47,29.00
2014,08,10,15,48,29.00
2014,08,10,15,49,28.90
2014,08,10,15,50,28.90
2014,08,10,15,51,28.70
2014,08,10,15,52,28.70
2014,08,10,15,53,28.60
2014,08,10,15,54,28.50
2014,08,10,15,55,28.40
2014,08,10,15,56,28.40
2014,08,10,15,57,28.30
2014,08,10,15,58,28.20
2014,08,10,15,59,28.20
2014,08,10,16,00,28.20
2014,08,10,16,01,28.30
2014,08,10,16,02,28.40
2014,08,10,16,03,28.40
2014,08,10,16,04,28.50
2014,08,10,16,05,28.50
2014,08,10,16,06,28.50
2014,08,10,16,07,28.60
2014,08,10,16,08,28.70
2014,08,10,16,09,28.70
2014,08,10,16,10,28.80
2014,08,10,16,11,28.80
2014,08,10,16,12,28.80
2014,08,10,16,13,28.80
2014,08,10,16,14,28.80
2014,08,10,16,15,28.90
2014,08,10,16,16,28.90
2014,08,10,16,17,29.00
2014,08,10,16,18,29.00
2014,08,10,16,19,29.10
2014,08,10,16,20,29.20
2014,08,10,16,21,29.30
2014,08,10,16,22,29.40
2014,08,10,16,23,29.50
2014,08,10,16,24,29.60
2014,08,10,16,25,29.60
2014,08,10,16,26,29.80
2014,08,10,16,27,29.80
2014,08,10,16,28,29.80
2014,08,10,16,29,29.70
2014,08,10,16,30,29.70
2014,08,10,16,31,29.60
2014,08,10,16,32,29.50
2014,08,10,16,33,29.50
2014,08,10,16,34,29.40
2014,08,10,16,35,29.30
2014,08,10,16,36,29.30
2014,08,10,16,37,29.20
2014,08,10,16,38,29.10
2014,08,10,16,39,29.10
2014,08,10,16,40,29.10
2014,08,10,16,41,29.10
2014,08,10,16,42,29.10
2014,08,10,16,43,29.10
2014,08,10,16,44,29.10
2014,08,10,16,45,29.10
2014,08,10,16,46,29.10
2014,08,10,16,47,29.00
2014,08,10,16,48,29.00
2014,08,10,16,49,28.90
2014,08,10,16,50,28.90
2014,08,10,16,51,28.90
2014,08,10,16,52,28.80
2014,08,10,16,53,28.90
2014,08,10,16,54,28.90
2014,08,10,16,55,29.00
2014,08,10,16,56,29.00
2014,08,10,16,57,29.10
2014,08,10,16,58,29.20
2014,08,10,16,59,29.20
2014,08,10,17,00,29.30
2014,08,10,17,01,29.30
2014,08,10,17,02,29.40
2014,08,10,17,03,29.40
2014,08,10,17,04,29.50
2014,08,10,17,05,29.60
2014,08,10,17,06,29.70
2014,08,10,17,07,29.70
2014,08,10,17,08,29.80
2014,08,10,17,09,29.80
2014,08,10,17,10,29.90
2014,08,10,17,11,30.00
2014,08,10,17,12,30.10
2014,08,10,17,13,30.20
2014,08,10,17,14,30.20
2014,08,10,17,15,30.20
2014,08,10,17,16,30.20
2014,08,10,17,17,30.20
2014,08,10,17,18,30.30
2014,08,10,17,19,30.30